Aberdeen, United Kingdom

5:24 PM BST on May 22, 2017 (GMT +0100)
Dyce

Weather History for EGPD - October, 2012

Change the Weather History Date:

Sunday, October 21, 2012

  Actual Average Record
Temperature  
Mean Temperature 46 °F -  
Max Temperature 58 °F 49 °F 69 °F (2015)
Min Temperature 35 °F 37 °F 33 °F (1997)
Degree Days  
Heating Degree Days 18    
Moisture  
Dew Point 42 °F    
Average Humidity 87    
Maximum Humidity 100    
Minimum Humidity 56    
Precipitation  
Precipitation 0.00 in 0.10 in - ()
Sea Level Pressure  
Sea Level Pressure 30.13 in    
Wind  
Wind Speed 3 mph ()    
Max Wind Speed 10 mph    
Max Gust Speed -    
Visibility 6.5 miles    
Events      
Averages and records for this station are not official NWS values.
T = Trace of Precipitation, MM = Missing Value Source: Averaged Metar Reports

Daily Weather History Graph

Daily Weather History Graph

Search for Another Location

Airport or City:

Trip Planner

Search our weather history database for the weather conditions in past years. The results will help you decide how hot, cold, wet, or windy it might be!

Date:

Astronomy

Oct. 21, 2012 Rise Set
Actual Time 7:56 AM BST 5:49 PM BST
Civil Twilight 7:16 AM BST 6:29 PM BST
Nautical Twilight 6:31 AM BST 7:13 PM BST
Astronomical Twilight 5:47 AM BST 7:58 PM BST
Moon 2:35 PM BST (10/21) 11:03 PM BST (10/21)
Length of Visible Light 11h 12m
Length of Day
9h 53m
Waxing Crescent, 42% of the Moon is Illuminated
Oct 21
Waxing Crescent
Oct 22
First Quarter
Oct 29
Full
Nov 7
Last Quarter
Nov 13
New

Hourly Weather History & Observations

Time (BST) Temp. Windchill Dew Point Humidity Pressure Visibility Wind Dir Wind Speed Gust Speed Precip Events Conditions
12:20 AM 41.0 °F 38.0 °F 39.2 °F 93% 30.01 in 6.2 mi West 4.6 mph - N/A   Unknown
12:50 AM 43 °F - 42 °F 92% 30.04 in 10 mi South 5.8 mph - -   Overcast
12:50 AM 41.0 °F 38.0 °F 39.2 °F 93% 30.04 in - SSW 4.6 mph - N/A   Clear
1:20 AM 42.8 °F - 41.0 °F 93% 30.04 in 6.2 mi Variable 2.3 mph - N/A   Unknown
1:50 AM 42.8 °F - 41.0 °F 93% 30.04 in - Calm Calm - N/A   Clear
2:20 AM 41.0 °F - 39.2 °F 93% 30.04 in 6.2 mi NW 2.3 mph - N/A   Unknown
2:50 AM 41.0 °F - 39.2 °F 93% 30.04 in - Variable 2.3 mph - N/A   Clear
3:20 AM 41.0 °F - 39.2 °F 93% 30.04 in 6.2 mi NNW 2.3 mph - N/A   Unknown
3:50 AM 41 °F - 41 °F 98% 30.06 in 7 mi NNE 2.3 mph - -   Partly Cloudy
3:50 AM 41.0 °F - 41.0 °F 100% 30.04 in 6.2 mi Calm Calm - N/A   Unknown
4:20 AM 41.0 °F - 39.2 °F 93% 30.04 in 6.2 mi Calm Calm - N/A   Unknown
4:50 AM 41.0 °F - 39.2 °F 93% 30.04 in - Calm Calm - N/A   Clear
5:20 AM 39.2 °F - 39.2 °F 100% 30.06 in - Calm Calm - N/A   Clear
5:50 AM 41.0 °F - 39.2 °F 93% 30.06 in - Variable 2.3 mph - N/A   Clear
6:20 AM 39.2 °F - 39.2 °F 100% 30.06 in - Calm Calm - N/A   Clear
6:50 AM 39 °F - 39 °F 99% 30.09 in 5 mi NNE 1.2 mph - -   Mist
6:50 AM 39.2 °F - 39.2 °F 100% 30.06 in - Calm Calm - N/A   Clear
7:20 AM 37.4 °F - 35.6 °F 93% 30.09 in - Calm Calm - N/A   Clear
7:50 AM 35.6 °F 32.8 °F 35.6 °F 100% 30.09 in - North 3.5 mph - N/A   Clear
8:20 AM 37.4 °F - 35.6 °F 93% 30.09 in - Calm Calm - N/A   Clear
8:50 AM 39.2 °F - 37.4 °F 93% 30.12 in - Variable 2.3 mph - N/A   Clear
9:20 AM 41.0 °F - 39.2 °F 93% 30.12 in - Calm Calm - N/A   Clear
9:50 AM 42.8 °F 41.1 °F 41.0 °F 93% 30.12 in - Variable 3.5 mph - N/A   Clear
10:20 AM 42.8 °F - 41.0 °F 93% 30.12 in - Variable 2.3 mph - N/A   Clear
10:50 AM 50.0 °F - 44.6 °F 82% 30.12 in - Variable 2.3 mph - N/A   Clear
11:20 AM 53.6 °F - 44.6 °F 72% 30.15 in - SSW 4.6 mph - N/A   Clear
11:50 AM 55.4 °F - 46.4 °F 72% 30.15 in - SSW 4.6 mph - N/A   Clear
12:20 PM 55.4 °F - 46.4 °F 72% 30.15 in - SSW 6.9 mph - N/A   Clear
12:50 PM 56 °F - 45 °F 56% 30.14 in 11 mi SW 5.8 mph - -  
12:50 PM 57.2 °F - 46.4 °F 67% 30.15 in - SSW 4.6 mph - N/A   Clear
1:20 PM 57.2 °F - 46.4 °F 67% 30.12 in - SSW 6.9 mph - N/A   Clear
1:50 PM 59.0 °F - 46.4 °F 63% 30.12 in - SW 5.8 mph - N/A   Clear
2:20 PM 59.0 °F - 46.4 °F 63% 30.15 in 6.2 mi SSW 6.9 mph - N/A   Partly Cloudy
2:50 PM 59.0 °F - 44.6 °F 59% 30.15 in - Variable 5.8 mph - N/A   Clear
3:20 PM 59.0 °F - 48.2 °F 67% 30.15 in 6.2 mi South 6.9 mph - N/A   Partly Cloudy
3:50 PM 56 °F - 47 °F 65% 30.16 in 9 mi South 10.4 mph - -  
3:50 PM 55.4 °F - 48.2 °F 77% 30.15 in 6.2 mi South 9.2 mph - N/A   Partly Cloudy
4:20 PM 55.4 °F - 48.2 °F 77% 30.15 in - South 6.9 mph - N/A   Clear
4:50 PM 53.6 °F - 48.2 °F 82% 30.15 in - South 6.9 mph - N/A   Clear
5:20 PM 53.6 °F - 48.2 °F 82% 30.15 in - South 4.6 mph - N/A   Clear
5:50 PM 50.0 °F - 46.4 °F 87% 30.18 in - South 3.5 mph - N/A   Clear
6:20 PM 50.0 °F - 46.4 °F 87% 30.18 in - Variable 3.5 mph - N/A   Clear
6:50 PM 51 °F - 47 °F 80% 30.20 in 8 mi SSW 4.6 mph - -   Scattered Clouds
6:50 PM 48.2 °F - 44.6 °F 87% 30.18 in - SSW 5.8 mph - N/A   Clear
7:20 PM 46.4 °F - 42.8 °F 87% 30.21 in - Calm Calm - N/A   Clear
7:50 PM 46.4 °F 45.2 °F 44.6 °F 93% 30.21 in - Variable 3.5 mph - N/A   Clear
8:20 PM 44.6 °F - 42.8 °F 93% 30.21 in 5.6 mi Calm Calm - N/A   Unknown
8:50 PM 44.6 °F - 42.8 °F 93% 30.21 in - Calm Calm - N/A   Clear
9:20 PM 44.6 °F - 42.8 °F 93% 30.21 in - Calm Calm - N/A   Clear
9:50 PM 43 °F - 43 °F 98% 30.25 in 3 mi NNE 2.3 mph - -   Mist
9:50 PM 44.6 °F - 42.8 °F 93% 30.24 in - Variable 2.3 mph - N/A   Clear
10:20 PM 41.0 °F - 39.2 °F 93% 30.24 in - North 2.3 mph - N/A   Clear
10:50 PM 41.0 °F - 39.2 °F 93% 30.24 in - Variable 2.3 mph - N/A   Clear
11:20 PM 41.0 °F - 39.2 °F 93% 30.24 in 1.7 mi Calm Calm - N/A   Mist
11:50 PM 39.2 °F - 39.2 °F 100% 30.24 in - NW 2.3 mph - N/A   Clear